ネオワイズ彗星

C/2016 U1 ( NEOWISE )

English version
Home page
Updated on February 7, 2017

---------------------------------------------------------------------

・ プロフィール

発見日 2016年10月21日
発見光度 19等
発見者 Near-Earth Object Wide-field Infrared Survey Explorer

・ 写真集

・ 軌道要素

Epoch 2017 Jan. 7.0 TT = JDT 2457760.5
T 2017 Jan. 14.01695 TT                                 MPCW
q   0.3191536            (2000.0)            P               Q
z  -0.0007156      Peri.  162.75152     -0.63623366     +0.43621793
 +/-0.0000334      Node    61.42719     -0.76529507     -0.25247828
e   1.0002284      Incl.   46.43395     -0.09762262     -0.86369476
From 225 observations 2016 Oct. 27-2017 Jan. 2, mean residual 0".6.

・ 星図

・ 光度変化

        m1 = 10.0 + 5 logΔ + 30.0 log r  [   ,-43]  (              〜2016年12月 2日)
        m1 = 11.0 + 5 logΔ + 10.0 log r  [-43,   ]  (2016年12月 2日〜              )

---------------------------------------------------------------------

軌道要素はM.P.E.C. 2017-A35に掲載されたものです。
星図はステラナビゲータ Ver.10 (アストロアーツ) で作成したものです。
光度グラフはComet for Windowsで作成したものです。

---------------------------------------------------------------------

Copyright(C) Seiichi Yoshida (comet@aerith.net). All rights reserved.